FW0019 Weather Reports


Display with metric or nautical units.
time (UTC)temp
F
wind
direction
speed
MPH
gust
MPH
rain 1hr
in
rain 24hr
in
rain mn
in
humidity
%
barometer
mb
20260905023054 61 105 3.0 7.0 0.00 0.00 0.00 50 877.9
20260905021546 63 113 4.0 10.0 0.00 0.00 0.00 47 877.9
20260905020043 64 81 7.0 13.0 0.00 0.00 0.00 47 877.9
20260905014541 65 107 6.0 14.0 0.00 0.00 0.00 45 878.0
20260905013043 67 100 7.0 13.0 0.00 0.00 0.00 44 877.9
20260905011541 68 151 7.0 16.0 0.00 0.00 0.00 43 878.0
20260905010043 68 120 6.0 14.0 0.00 0.00 0.00 44 877.9
20260905004540 70 109 6.0 17.0 0.00 0.00 0.00 44 877.9
20260905003039 70 102 10.0 18.0 0.00 0.00 0.00 45 878.0
20260905001541 71 109 10.0 19.0 0.00 0.00 0.00 45 877.9
20260905000038 71 117 10.0 19.0 0.00 0.00 0.00 45 878.0
20260904234536 72 108 11.0 17.0 0.00 0.00 0.00 43 877.9
20260904233041 73 136 13.0 21.0 0.00 0.00 0.00 43 878.1
20260904231538 74 144 10.0 18.0 0.00 0.00 0.00 41 878.0
20260904230100 74 106 8.0 18.0 0.00 0.00 0.00 39 878.2
20260904224534 76 122 8.0 16.0 0.00 0.00 0.00 37 878.3
20260904223031 75 116 6.0 19.0 0.00 0.00 0.00 35 878.4
20260904221530 76 109 9.0 15.0 0.00 0.00 0.00 34 878.4
20260904220029 75 117 8.0 15.0 0.00 0.00 0.00 33 878.6
20260904214528 76 123 8.0 17.0 0.00 0.00 0.00 31 878.7
20260904213031 76 154 12.0 19.0 0.00 0.00 0.00 32 878.7
20260904211528 76 98 8.0 22.0 0.00 0.00 0.00 31 878.6
20260904210026 76 86 6.0 21.0 0.00 0.00 0.00 28 878.7
20260904204531 76 157 10.0 18.0 0.00 0.00 0.00 28 878.6
20260904203023 76 165 10.0 17.0 0.00 0.00 0.00 29 878.8
20260904201521 75 140 6.0 16.0 0.00 0.00 0.00 30 878.7
20260904200024 75 118 8.0 16.0 0.00 0.00 0.00 26 878.7
20260904194520 75 140 12.0 19.0 0.00 0.00 0.00 24 878.7
20260904193017 75 141 7.0 18.0 0.00 0.00 0.00 25 878.9
20260904191524 75 101 10.0 16.0 0.00 0.00 0.00 25 878.8
20260904190016 75 142 8.0 18.0 0.00 0.00 0.00 25 879.1
20260904184515 75 161 6.0 14.0 0.00 0.00 0.00 24 879.0
20260904183011 74 114 7.0 12.0 0.00 0.00 0.00 25 879.2
20260904181510 73 111 8.0 18.0 0.00 0.00 0.00 24 879.2
20260904180008 73 144 9.0 13.0 0.00 0.00 0.00 21 879.2
20260904174506 72 172 7.0 13.0 0.00 0.00 0.00 20 879.1
20260904173005 71 173 6.0 13.0 0.00 0.00 0.00 18 879.0
20260904171614 71 142 6.0 14.0 0.00 0.00 0.00 19 879.0
20260904170058 70 82 5.0 16.0 0.00 0.00 0.00 18 878.9
20260904164611 70 176 7.0 15.0 0.00 0.00 0.00 21 878.6
20260904163052 69 142 7.0 15.0 0.00 0.00 0.00 23 878.4
20260904161551 68 130 7.0 14.0 0.00 0.00 0.00 20 878.4
20260904160048 67 164 8.0 14.0 0.00 0.00 0.00 23 878.1
20260904154543 66 169 6.0 14.0 0.00 0.00 0.00 20 878.0
20260904153059 65 119 8.0 15.0 0.00 0.00 0.00 15 877.9
20260904151544 64 123 8.0 13.0 0.00 0.00 0.00 14 877.7
20260904150041 64 130 7.0 13.0 0.00 0.00 0.00 14 877.6
20260904144530 63 103 7.0 14.0 0.00 0.00 0.00 14 877.5
20260904143026 61 98 8.0 13.0 0.00 0.00 0.00 15 877.4
20260904141522 60 95 8.0 13.0 0.00 0.00 0.00 15 877.2
20260904140031 59 140 7.0 11.0 0.00 0.00 0.00 15 877.0
20260904134519 57 114 5.0 11.0 0.00 0.00 0.00 15 877.1
20260904133019 57 46 3.0 10.0 0.00 0.00 0.00 16 877.0
20260904131536 57 103 5.0 13.0 0.00 0.00 0.00 17 876.7
20260904130016 57 110 6.0 12.0 0.00 0.00 0.00 18 876.6
20260904124516 57 98 7.0 15.0 0.00 0.00 0.00 20 876.5
20260904123014 57 111 7.0 13.0 0.00 0.00 0.00 20 876.4
20260904121513 57 80 5.0 12.0 0.00 0.00 0.00 22 876.5
20260904120019 57 117 5.0 14.0 0.00 0.00 0.00 22 876.5
20260904114511 57 65 7.0 13.0 0.00 0.00 0.00 23 876.5
20260904113030 57 92 4.0 11.0 0.00 0.00 0.00 26 876.5
20260904111509 56 85 5.0 11.0 0.00 0.00 0.00 28 876.7
20260904110008 56 109 3.0 8.0 0.00 0.00 0.00 32 876.6
20260904104507 56 76 3.0 9.0 0.00 0.00 0.00 38 876.5
20260904103004 56 69 2.0 10.0 0.00 0.00 0.00 39 876.5
20260904101502 57 111 4.0 9.0 0.00 0.00 0.00 39 876.5
20260904100110 58 68 3.0 9.0 0.00 0.00 0.00 39 876.5
20260904094609 58 95 5.0 9.0 0.00 0.00 0.00 40 876.5
20260904093103 58 107 4.0 9.0 0.00 0.00 0.00 39 876.4
20260904091611 58 102 4.0 10.0 0.00 0.00 0.00 36 876.6
20260904090057 58 130 4.0 8.0 0.00 0.00 0.00 36 876.6
20260904084553 59 60 1.0 5.0 0.00 0.00 0.00 36 876.8
20260904083050 59 66 1.0 5.0 0.00 0.00 0.00 34 877.0
20260904081550 59 63 1.0 6.0 0.00 0.00 0.00 35 877.0
20260904080046 59 96 2.0 8.0 0.00 0.00 0.00 32 877.2
20260904074548 58 78 2.0 7.0 0.00 0.00 0.00 28 877.3
20260904073048 58 78 2.0 5.0 0.00 0.00 0.00 28 877.3
20260904071540 58 85 3.0 5.0 0.00 0.00 0.00 30 877.3
20260904070037 59 103 2.0 5.0 0.00 0.00 0.00 31 877.3
20260904064533 59 75 2.0 8.0 0.00 0.00 0.00 36 877.3
20260904063028 59 107 0.0 8.0 0.00 0.00 0.00 39 877.2
20260904061523 60 136 0.0 0.0 0.00 0.00 0.00 40 877.3
20260904060020 60 83 1.0 5.0 0.00 0.00 0.00 39 877.3
20260904054533 61 105 4.0 8.0 0.00 0.00 0.00 38 877.4
20260904053015 60 13 0.0 4.0 0.00 0.00 0.00 40 877.3
20260904051512 58 98 0.0 2.0 0.00 0.00 0.00 43 877.5
20260904050003 58 98 0.0 3.0 0.00 0.00 0.00 44 877.5
20260904044558 57 98 0.0 0.0 0.00 0.00 0.00 45 877.6
20260904043057 57 98 0.0 0.0 0.00 0.00 0.00 45 877.5
20260904041548 58 98 0.0 0.0 0.00 0.00 0.00 45 877.6
20260904040044 59 98 0.0 0.0 0.00 0.00 0.00 48 877.5
20260904034540 57 87 1.0 3.0 0.00 0.00 0.00 48 877.3
20260904033035 57 312 0.0 1.0 0.00 0.00 0.00 69 877.3
20260904031531 57 312 0.0 0.0 0.00 0.00 0.00 72 877.1
20260904030026 57 80 0.0 2.0 0.00 0.00 0.00 73 877.1
20260904024533 58 114 3.0 8.0 0.00 0.00 0.00 77 877.0